Wind_Speed
12 12 12 13 14 15 16 17 17 19 22 22 18 16 16 17 17 18 19 19 19 18 17 18 19 18 19 21 20 19 18 19 20 22 23 25 25 24 24 24 24 25 27 25 22 21 21 21 22 21 20 21 21 21 20 21 20 20 18 17 18 16 16 17 16 15 16 15 13 13 13 12 13 14 15 14 14 16 16 16 16 16 15 14 13
10 11 11 12 13 14 15 16 17 18 20 22 18 15 14 13 12 13 14 16 17 17 17 19 20 19 20 21 20 19 18 18 18 20 21 22 24 25 26 26 26 27 28 25 23 23 23 22 22 21 20 20 21 20 20 21 20 19 19 19 18 17 16 16 17 17 16 14 12 13 13 12 13 14 14 14 14 15 16 15 16 16 15 13 12
10 10 11 12 13 13 14 16 17 16 17 19 18 14 13 10 9 10 12 15 17 18 19 19 19 20 21 21 19 18 18 18 18 20 20 20 22 25 27 28 27 27 27 25 25 23 21 22 22 21 20 20 20 21 20 20 19 20 20 20 19 18 17 17 18 18 17 14 13 14 13 12 13 14 14 14 14 15 15 15 16 16 14 13 12
10 11 11 12 12 13 14 15 16 15 15 16 15 13 10 8 9 11 12 15 18 20 21 20 18 18 20 21 20 18 19 19 19 19 19 19 21 24 26 27 27 27 27 27 26 22 21 23 22 20 20 20 20 20 19 19 19 20 21 20 19 18 17 17 17 17 16 15 14 14 14 13 14 15 16 16 16 16 16 15 16 15 14 13 12
10 11 11 12 12 13 14 14 15 14 14 14 13 12 11 9 9 11 14 16 18 21 23 22 20 20 20 21 22 21 21 21 20 19 18 19 21 23 25 27 27 28 28 27 26 23 22 23 21 20 21 21 20 20 19 19 19 20 21 20 20 20 18 17 17 16 17 16 14 14 14 13 14 15 15 15 16 16 16 16 16 15 14 13 12
11 12 12 12 12 12 13 14 14 13 13 13 13 13 12 11 11 12 13 15 16 18 22 23 23 24 23 22 23 24 24 22 19 18 18 19 21 23 25 27 28 29 29 29 28 24 22 22 22 22 22 21 21 21 20 20 19 20 21 21 21 21 19 18 18 17 18 16 14 15 13 12 14 14 12 12 14 16 17 16 16 15 13 13 12
12 13 13 13 13 13 13 13 13 13 12 13 13 13 13 12 12 13 15 18 19 21 24 27 27 26 26 24 24 26 26 23 20 19 18 20 22 24 26 27 27 28 28 28 26 23 22 22 21 22 22 23 24 23 22 23 23 24 24 23 23 21 18 18 19 18 17 16 15 15 14 13 14 12 11 11 13 15 16 16 16 15 14 13 11
12 13 13 14 14 14 14 14 14 13 13 13 13 13 13 13 13 15 17 19 23 25 28 31 31 29 29 27 25 25 27 27 25 22 20 21 22 24 27 27 27 28 28 26 24 23 22 22 22 23 24 25 26 24 23 23 23 24 22 20 22 20 18 19 20 19 18 18 17 16 15 15 13 12 12 12 13 15 16 15 16 15 13 12 11
12 13 14 14 15 15 15 15 15 15 14 14 14 15 15 15 15 16 17 18 20 22 26 29 31 31 31 30 28 28 28 28 28 25 21 21 22 24 27 28 27 28 28 26 26 26 25 24 24 25 25 25 24 21 20 20 20 20 20 20 22 21 20 21 21 21 20 20 19 18 17 16 14 13 13 12 12 14 16 16 15 15 14 14 13
13 14 15 15 15 16 16 16 16 16 16 16 16 16 16 17 17 17 18 18 18 19 22 25 28 30 31 31 31 31 31 28 27 27 24 21 22 24 28 29 29 28 28 27 27 27 26 25 25 25 25 25 22 20 20 20 19 19 21 22 22 22 23 23 22 23 24 24 22 20 18 17 15 14 13 13 13 14 16 16 14 13 13 13 13
14 15 16 16 17 17 17 18 18 18 18 17 17 17 17 18 19 20 20 20 20 19 20 22 25 28 31 32 32 33 33 30 28 28 26 25 25 27 28 29 29 28 28 28 28 26 26 26 24 24 25 24 21 21 22 22 21 20 21 22 23 22 23 25 25 25 26 25 24 23 21 19 17 15 15 14 14 15 16 15 15 15 14 12 13
15 16 16 17 17 18 18 19 19 18 18 18 18 19 19 19 20 21 22 22 22 22 22 22 24 26 29 32 33 33 34 32 28 27 26 27 28 28 28 29 30 29 29 30 28 26 25 25 23 23 24 24 22 23 23 23 23 22 22 23 23 22 24 27 28 27 25 25 25 24 24 22 19 18 17 16 16 16 16 15 17 18 16 15 15
15 16 16 17 17 18 18 19 19 19 19 19 19 20 20 21 22 23 23 23 23 24 24 24 24 25 26 29 30 32 33 32 28 27 26 27 29 29 28 29 31 30 28 27 26 24 23 23 22 22 22 22 22 23 23 24 25 24 23 23 24 24 24 27 29 28 27 26 25 25 25 24 21 20 19 18 17 16 16 16 17 17 17 17 17
15 16 16 17 17 18 19 19 20 20 20 20 20 20 21 22 23 24 24 24 24 24 25 25 25 24 24 25 27 29 32 30 28 29 29 28 30 30 29 30 32 30 27 26 25 23 23 24 23 22 22 21 21 22 22 23 24 25 25 25 25 26 25 26 28 28 27 27 27 26 26 24 22 21 20 19 19 18 17 17 17 17 18 18 17
16 17 17 18 18 18 19 20 21 22 22 22 22 22 23 24 25 25 25 26 26 26 25 25 24 23 22 22 23 25 28 28 28 29 30 31 32 31 30 31 33 32 29 26 25 25 25 25 24 23 22 22 22 22 22 22 23 24 26 25 25 26 26 26 26 26 26 27 27 27 26 22 18 17 17 19 20 20 19 19 20 19 19 18 18
17 17 18 19 19 19 19 20 21 22 23 23 24 24 24 24 25 26 27 27 28 27 26 24 23 22 22 21 21 22 24 25 26 28 30 32 33 32 32 33 35 36 32 28 27 27 26 26 26 24 23 22 23 23 23 23 23 24 26 26 25 26 28 28 27 25 26 27 27 27 25 19 15 16 19 20 20 19 20 21 21 20 20 19 19
17 17 18 18 18 19 19 19 20 20 21 22 23 24 24 24 24 25 26 27 27 27 26 24 22 21 20 20 21 21 22 24 25 26 28 30 31 32 33 34 36 37 34 31 30 29 27 27 26 23 21 21 21 23 24 24 24 25 26 26 27 28 29 28 27 27 28 28 30 30 26 19 17 21 23 23 22 22 22 21 21 21 21 19 19
16 17 17 18 18 18 19 19 19 19 20 21 22 23 24 24 24 24 24 25 25 25 24 23 21 19 19 19 19 19 20 21 21 22 24 26 29 30 30 32 35 36 34 33 32 30 29 29 27 23 22 21 22 24 24 24 25 26 26 26 28 28 27 27 28 30 31 31 32 32 29 26 25 26 25 25 25 24 23 22 22 22 20 19 20
15 15 16 17 17 17 17 18 18 19 19 20 21 22 23 23 23 23 22 22 22 21 20 19 18 17 17 17 18 18 19 19 19 21 22 24 26 28 30 33 35 34 34 34 32 30 30 30 28 25 24 23 23 24 22 21 24 26 25 26 26 27 27 27 28 30 33 33 32 31 30 30 30 28 28 28 27 25 24 24 25 23 22 23 23
13 14 15 15 15 15 15 15 16 17 17 18 19 19 20 21 21 21 20 20 20 19 18 17 16 15 14 15 15 16 16 17 18 19 21 23 24 27 29 29 31 33 34 32 30 29 30 29 27 27 27 26 25 23 22 23 25 25 26 27 28 27 28 27 26 29 33 34 33 32 31 32 33 31 31 30 28 25 24 25 26 26 25 25 25
13 14 15 15 15 15 15 14 15 16 16 16 16 17 18 18 19 19 19 18 18 18 17 16 15 14 13 13 13 13 13 13 12 13 17 21 23 26 27 24 29 33 34 32 30 30 31 30 28 27 26 26 26 24 24 24 25 25 26 27 28 29 28 26 26 30 34 36 35 34 33 32 33 32 32 29 26 24 23 25 26 26 26 27 27
14 14 14 14 15 15 16 16 15 16 16 16 16 15 16 16 17 17 18 17 17 16 16 15 14 13 12 12 11 12 12 12 12 13 17 20 22 26 25 25 31 34 31 30 31 32 32 30 28 26 24 24 23 23 24 25 25 26 27 26 27 29 29 28 28 29 33 35 36 35 34 33 33 32 31 28 25 24 25 26 27 28 29 29 31
13 13 13 14 14 15 16 16 16 17 16 16 16 16 16 16 16 16 17 16 15 14 14 14 14 14 13 11 10 9 10 12 12 13 15 18 21 24 23 25 29 31 29 28 31 33 32 29 26 25 25 24 23 22 22 24 25 26 27 27 28 29 30 31 31 30 32 34 35 34 33 33 33 32 31 29 27 26 27 28 29 30 31 32 34
11 11 12 12 13 14 15 16 16 16 16 15 15 16 17 17 17 17 16 15 15 14 14 14 14 14 14 14 12 10 9 10 12 12 11 13 16 21 24 25 26 27 28 29 31 33 33 31 29 27 25 25 27 26 24 25 27 28 29 29 29 29 28 28 28 28 29 30 31 31 31 32 32 32 32 31 31 30 30 31 32 33 34 35 34
10 11 11 12 12 13 14 15 14 14 14 14 14 15 17 18 18 18 17 16 15 14 14 14 13 13 14 14 14 12 11 10 11 11 12 11 12 15 20 23 23 25 29 31 31 33 33 33 34 32 27 25 26 27 27 27 28 29 30 30 28 26 24 24 25 27 28 29 30 31 32 33 34 34 35 35 35 35 35 35 35 36 36 33 27
11 11 12 12 13 13 14 13 13 12 12 12 13 14 15 16 17 17 17 17 16 15 15 14 13 12 12 13 12 11 11 12 11 11 14 15 14 14 16 19 22 24 26 27 28 31 31 33 36 35 29 26 27 27 29 31 30 28 29 30 28 27 27 28 30 31 33 34 35 35 36 37 38 38 39 39 39 39 38 37 36 34 31 26 20
12 12 13 13 13 14 14 13 13 12 12 12 12 13 14 14 15 15 16 16 16 15 15 14 14 12 11 11 12 10 9 11 11 12 14 17 19 20 20 19 21 24 25 23 24 27 29 31 34 32 29 28 30 29 31 35 35 33 33 33 32 32 33 34 35 36 38 38 39 40 40 41 41 42 42 41 40 39 37 34 31 26 21 18 15
13 13 14 14 14 15 15 15 15 14 13 13 13 13 14 14 14 14 14 14 14 14 14 14 14 14 12 10 11 10 9 9 10 12 14 17 20 23 25 24 22 23 25 25 26 27 29 31 32 32 31 31 30 28 29 32 35 35 35 35 34 35 35 36 38 39 40 41 42 43 43 42 43 42 41 39 38 35 32 27 22 17 13 11 11
14 14 14 14 15 15 15 16 17 16 15 15 14 14 15 15 16 15 15 14 14 13 14 13 13 14 13 12 11 11 10 10 10 11 13 15 17 20 23 24 24 24 25 26 26 25 26 27 29 31 32 33 32 32 32 33 34 35 36 37 38 39 40 40 40 41 41 41 42 41 40 39 38 37 35 33 31 28 24 19 14 10 8 8 10
13 13 14 14 15 16 15 16 16 16 16 17 17 17 17 16 16 17 17 16 16 15 14 14 13 14 14 14 13 13 12 11 10 10 11 13 15 18 19 21 22 22 23 24 25 25 25 26 27 29 30 31 34 36 35 34 35 36 38 39 41 42 42 42 41 41 40 39 38 36 34 33 31 29 28 25 22 18 14 10 6 5 6 8 12
12 12 12 14 15 16 16 16 16 15 16 17 18 19 19 19 18 18 18 18 18 17 17 16 15 15 14 14 14 14 14 13 12 11 11 11 12 14 17 18 20 21 22 23 23 23 23 25 27 28 29 31 33 34 33 33 33 34 34 35 35 35 35 35 34 34 33 32 31 29 27 25 23 21 18 15 12 9 6 4 4 6 9 12 14
16 14 14 14 14 15 16 16 16 16 16 17 17 17 19 20 20 20 19 19 18 18 18 17 17 16 15 14 14 14 14 14 13 12 11 11 10 11 12 14 16 19 21 23 24 23 23 23 25 26 27 28 29 29 28 28 28 28 29 30 30 30 30 30 30 29 29 27 25 23 20 18 16 13 10 8 5 3 3 5 8 10 12 13 14
19 18 17 14 13 14 15 15 15 15 16 17 16 16 17 18 19 20 21 20 19 18 17 17 17 17 16 15 14 14 14 13 13 13 12 11 10 9 9 10 10 12 15 17 19 20 21 23 24 25 26 27 28 28 28 29 29 30 30 30 30 30 29 28 27 25 23 21 19 16 13 11 10 8 6 5 3 4 7 9 10 11 12 12 12
18 19 19 17 14 13 13 14 15 16 16 16 16 18 19 18 18 19 20 21 21 20 18 17 17 16 16 16 15 14 14 14 13 12 12 11 10 9 8 8 8 8 9 10 12 13 15 17 18 20 21 23 24 25 25 26 27 28 28 27 27 25 24 22 20 18 16 15 13 11 10 8 7 6 5 5 6 8 10 10 11 11 11 11 12
16 18 19 18 15 14 13 15 17 16 15 15 17 19 20 19 19 20 20 21 21 21 20 19 17 15 15 15 15 14 14 14 14 13 12 11 10 9 8 7 6 6 6 6 7 9 10 12 13 14 14 15 16 17 17 17 18 18 18 19 18 17 17 16 15 14 13 12 11 10 9 7 6 6 7 8 9 10 11 11 11 11 11 11 11
16 17 18 17 14 12 12 15 17 17 16 16 18 20 20 20 20 21 22 22 22 21 21 21 19 17 15 14 14 14 14 13 13 13 12 12 11 10 9 7 6 5 4 4 3 4 5 7 8 9 9 10 11 11 11 11 11 11 12 12 12 12 12 12 12 11 11 10 9 8 7 6 7 8 10 10 11 11 11 11 11 11 10 10 10
16 16 17 17 14 11 10 13 16 17 17 16 17 20 22 22 22 23 24 24 24 22 21 21 20 19 18 16 14 14 13 13 13 13 13 12 11 10 10 8 6 5 3 2 2 1 1 2 4 5 6 7 8 9 9 10 10 11 11 11 11 11 10 10 9 8 7 7 6 7 7 9 10 11 11 11 11 10 10 10 10 10 10 10 10
16 16 16 17 15 11 9 12 15 15 14 13 14 18 21 21 22 24 24 25 25 25 23 22 21 20 19 18 17 16 14 13 13 13 13 13 12 11 10 9 8 6 4 3 2 2 1 1 0 2 3 4 6 7 8 8 9 9 9 8 8 7 7 7 7 6 6 7 8 9 10 11 11 11 10 10 10 10 10 9 9 10 10 10 10
14 16 15 16 16 13 10 12 14 14 13 12 13 16 19 20 22 23 24 25 25 25 25 24 24 22 21 20 19 18 16 14 13 12 12 12 13 12 11 10 9 8 6 5 4 3 3 3 2 2 1 0 1 3 4 5 5 6 6 5 5 5 5 5 6 7 8 9 9 10 10 10 10 10 10 10 9 9 9 9 10 10 10 10 9
10 14 16 16 16 15 12 11 13 14 14 13 12 15 18 19 20 22 23 24 25 25 25 24 24 24 23 21 20 19 18 16 15 13 13 13 12 12 12 11 10 10 8 7 7 6 5 5 4 4 4 3 3 2 1 1 1 2 3 4 4 5 6 6 7 8 9 9 9 10 10 10 10 10 9 9 9 9 9 10 10 10 9 9 8
10 12 16 16 15 14 14 13 12 13 14 14 13 15 16 18 19 20 21 23 24 25 24 23 23 23 23 22 22 20 19 18 16 15 14 13 13 12 12 11 11 11 10 10 9 8 7 7 6 6 6 5 4 3 2 1 2 2 4 5 6 6 6 7 7 8 9 9 9 9 9 9 9 9 9 8 9 9 10 11 10 10 9 8 8
11 11 15 15 13 12 14 14 12 12 13 14 14 15 16 16 17 18 20 21 23 24 24 22 21 22 23 24 23 22 21 20 18 16 15 13 12 12 12 11 11 11 11 11 10 10 9 8 7 6 6 5 4 3 3 3 4 4 6 6 7 7 7 7 8 8 8 8 8 8 8 8 8 9 9 10 10 11 11 10 9 8 7 6 6
13 12 14 15 14 13 14 15 13 12 13 13 13 15 15 15 15 16 17 18 21 22 22 21 21 21 23 24 25 25 24 23 21 19 17 15 13 12 11 12 12 12 11 11 10 9 9 8 7 6 6 5 5 4 4 4 5 6 7 7 7 7 7 8 8 8 8 8 8 8 9 9 9 10 10 11 11 10 9 7 6 5 4 4 4
13 13 13 14 14 14 14 14 14 14 13 13 14 15 15 15 14 14 14 16 19 20 20 20 21 21 22 24 25 25 26 25 23 22 21 19 16 13 12 11 11 11 11 11 10 9 8 8 7 6 5 5 5 5 5 5 5 6 7 7 7 7 8 8 8 8 8 8 9 9 10 10 10 11 11 10 8 7 5 4 3 3 3 3 3
12 12 12 12 13 14 14 14 14 14 14 14 14 14 14 14 14 14 15 16 17 18 18 18 19 20 21 22 23 24 25 25 25 24 23 22 21 18 15 12 11 11 11 10 10 9 9 7 7 6 6 5 5 6 6 6 6 6 6 7 7 8 8 8 8 8 8 9 9 10 10 10 10 10 9 7 5 4 3 3 3 3 3 3 3
10 11 11 12 12 13 13 14 14 14 14 14 13 13 13 12 13 14 14 14 14 15 15 15 16 17 18 20 21 21 22 23 24 24 23 23 23 22 19 15 12 10 10 10 9 9 8 8 7 7 7 7 6 6 6 7 7 7 7 7 8 8 9 9 9 9 9 9 9 9 10 10 9 8 6 5 4 3 3 3 4 4 4 4 4
10 10 11 11 12 13 13 14 14 14 14 14 13 13 12 11 11 12 13 13 13 14 14 13 14 15 15 16 17 18 19 20 21 22 23 23 23 24 23 19 14 11 10 9 9 8 8 7 7 7 7 8 8 7 8 8 8 8 9 9 9 10 10 10 10 10 10 10 9 9 9 8 7 6 4 4 3 4 4 4 5 5 5 5 5
10 10 10 11 12 13 13 14 14 14 14 14 13 13 13 13 12 12 12 13 13 13 13 13 13 14 15 15 14 14 16 18 18 19 20 21 22 23 23 21 17 13 11 9 8 8 8 7 7 7 7 7 8 9 9 10 10 10 10 10 11 11 11 11 11 10 10 9 9 9 8 8 6 6 5 5 4 5 5 5 5 5 5 6 6
10 10 10 11 11 12 13 14 13 11 12 14 13 13 14 14 12 11 11 11 11 11 12 12 12 13 14 15 14 14 15 16 16 16 17 18 19 21 22 21 18 15 12 11 9 8 8 7 7 7 7 7 8 9 10 11 11 11 11 11 11 11 11 11 11 10 10 10 10 9 8 8 7 6 6 5 5 6 6 6 5 5 5 6 6
9 9 10 11 11 11 12 14 12 8 10 12 12 11 13 15 14 12 12 12 11 11 11 11 11 12 12 13 14 15 16 16 15 14 14 15 16 18 19 20 18 15 13 12 11 9 8 7 7 7 7 7 8 9 10 11 12 12 12 12 12 12 11 11 11 11 10 10 10 9 9 8 7 7 6 6 6 6 6 6 5 5 5 5 5
10 10 10 10 11 10 12 13 12 9 10 12 11 10 13 15 14 13 13 13 12 12 11 10 11 12 11 11 12 13 14 14 15 15 15 15 15 16 17 18 18 17 14 12 11 11 9 8 7 6 6 6 7 8 9 10 11 12 12 12 12 12 12 12 12 11 11 10 10 9 9 8 8 7 7 7 7 7 7 6 5 5 5 5 4
Wind_Direction
305 308 311 312 316 320 325 327 323 326 338 336 318 298 287 278 273 271 264 256 254 255 254 254 255 256 259 262 260 256 253 253 256 257 253 248 246 243 238 236 234 233 235 231 225 227 230 231 232 229 228 230 231 230 227 223 223 226 227 228 229 224 221 229 233 232 233 230 226 229 230 231 235 242 248 246 243 247 248 245 242 243 245 248 252
303 309 316 319 323 325 330 336 332 331 344 347 331 305 292 284 275 273 268 264 265 266 264 257 252 250 253 257 259 258 256 255 256 257 254 249 247 246 243 239 234 231 233 232 230 229 231 233 234 230 228 231 235 234 231 227 225 226 228 229 231 225 218 225 232 232 231 226 222 228 231 232 238 243 247 245 242 246 249 244 239 241 244 244 245
302 313 320 323 325 326 330 338 339 334 341 351 347 323 301 287 275 276 279 279 279 281 281 272 262 259 262 263 261 260 260 258 257 259 257 254 252 249 244 241 238 237 238 237 233 230 231 236 235 232 232 233 234 234 232 230 225 224 228 229 229 228 219 220 227 232 235 231 223 228 233 232 236 241 243 242 242 244 245 240 235 236 241 240 237
302 312 318 323 325 328 331 336 340 338 334 341 351 349 332 308 285 278 277 279 282 285 286 283 276 274 277 277 271 263 258 254 252 255 255 253 253 250 244 241 240 242 242 240 236 229 228 235 237 236 238 238 238 236 233 230 225 223 226 225 229 232 223 219 226 233 236 232 223 224 231 233 236 239 238 238 239 239 238 233 230 232 235 235 232
298 306 314 320 324 327 330 333 337 338 334 330 335 345 349 343 319 292 278 275 278 282 285 285 283 280 279 279 275 268 261 253 247 246 247 248 250 248 244 243 243 242 240 240 238 229 225 233 238 239 239 238 237 236 233 230 228 227 227 224 228 231 222 218 226 231 231 227 223 227 232 233 234 237 241 240 234 231 230 227 227 229 228 230 232
295 302 309 315 321 325 326 329 333 335 335 331 327 327 331 336 330 310 291 280 274 276 280 282 282 281 280 279 276 272 266 257 249 246 244 244 246 246 244 244 244 243 240 239 238 232 229 234 238 240 240 238 238 236 232 231 229 229 228 225 227 230 223 217 219 225 229 225 224 234 237 231 230 233 241 242 232 226 226 224 225 225 223 226 230
295 301 307 310 315 321 322 323 325 327 329 329 327 324 320 321 318 307 294 283 275 271 273 276 278 278 277 276 275 275 273 267 256 247 245 246 247 246 244 242 242 243 243 242 240 237 234 235 238 240 238 235 234 230 227 229 227 224 222 221 223 223 219 217 216 220 230 229 227 234 238 231 228 227 230 232 229 227 226 223 222 224 224 225 229
298 301 307 310 311 314 318 319 318 319 321 322 321 321 318 316 312 305 296 286 279 275 272 272 274 274 273 271 269 270 273 272 263 250 241 242 245 246 244 240 239 243 245 246 245 243 240 239 241 240 237 234 232 228 226 231 233 229 225 225 226 223 219 220 219 221 228 232 230 230 233 231 224 217 218 221 224 226 225 222 221 222 223 224 228
300 301 303 307 308 309 311 313 313 312 312 313 314 314 315 314 312 308 303 297 291 285 278 274 272 272 271 268 265 263 265 269 270 264 252 243 243 245 245 241 238 241 244 244 244 244 244 244 243 242 240 238 236 234 233 238 242 241 237 232 227 226 228 225 221 223 227 230 230 228 228 229 223 217 220 221 222 225 225 226 224 224 225 226 229
299 300 301 303 304 305 306 307 307 306 306 307 308 308 310 311 311 311 309 306 302 296 288 280 274 271 269 267 265 263 261 264 269 271 265 254 248 246 245 243 238 238 241 241 240 241 242 243 242 241 241 240 239 239 238 240 243 239 237 234 222 218 226 225 221 225 226 222 223 224 223 225 224 221 223 224 223 225 229 231 226 224 227 227 231
298 298 299 301 302 303 304 304 304 304 304 304 305 306 308 311 312 313 312 310 308 304 297 289 279 273 269 266 264 262 260 261 266 269 266 260 254 250 248 246 241 238 240 239 236 234 236 238 235 231 235 240 242 241 238 238 238 232 230 234 226 218 222 224 222 226 226 221 221 222 223 224 224 222 222 225 225 225 230 231 223 223 228 227 234
299 298 297 298 300 300 302 303 304 304 304 305 306 307 309 312 314 316 315 312 311 308 304 297 288 279 272 266 263 262 261 260 261 262 260 256 255 254 249 246 245 244 241 237 232 226 227 231 228 224 228 232 235 238 237 236 236 231 227 231 232 227 222 222 222 225 228 227 225 225 224 220 219 221 221 222 223 225 227 226 223 228 233 234 239
300 300 299 298 299 299 299 300 302 304 305 305 307 308 309 311 313 314 315 314 312 309 306 303 296 288 280 272 266 264 263 260 256 254 254 253 255 255 250 245 246 248 243 237 235 230 226 227 228 228 230 230 230 233 236 236 237 236 231 229 231 229 223 222 222 224 228 231 231 234 230 220 213 216 220 221 223 225 225 224 227 232 235 237 241
300 300 300 301 301 300 299 299 301 303 304 305 306 307 307 309 310 311 312 312 312 310 308 305 301 294 287 280 271 265 264 263 259 254 252 252 251 252 250 246 245 247 244 239 238 236 231 228 228 228 230 230 230 230 232 234 237 238 235 231 229 228 227 225 223 223 226 229 231 233 230 221 212 209 213 220 223 224 226 228 232 235 237 242 247
299 301 302 303 303 301 300 301 301 302 303 304 305 305 306 307 308 309 309 310 311 311 308 306 303 297 292 286 278 270 266 264 260 255 250 249 249 249 248 247 244 244 244 242 236 233 232 231 229 229 229 228 229 230 230 231 236 238 237 233 232 233 231 227 224 225 226 224 226 226 221 219 218 214 215 221 222 223 228 233 237 241 244 249 255
300 302 302 302 303 303 303 304 303 302 302 302 303 304 304 305 306 307 308 309 310 310 308 306 302 297 292 288 284 278 272 266 260 254 249 248 248 248 247 247 244 241 243 244 236 231 232 231 229 228 228 227 229 232 232 231 234 238 236 234 235 237 235 229 224 227 227 222 220 220 218 217 222 225 227 227 227 229 233 238 245 249 253 258 262
303 304 304 304 304 304 305 305 302 300 300 300 300 301 302 302 303 303 305 307 307 307 307 305 301 297 291 287 284 280 276 269 262 258 254 251 251 250 250 250 245 240 242 244 235 228 230 233 232 229 228 227 231 236 234 231 232 236 237 235 235 239 240 235 227 227 229 224 219 219 221 224 225 227 230 231 233 234 235 240 248 251 255 259 260
310 309 309 308 306 305 304 302 301 299 298 298 298 299 299 300 300 300 300 302 303 303 304 303 302 299 294 289 284 279 276 271 264 260 256 252 252 251 248 250 246 237 237 241 234 224 226 231 233 231 229 230 233 237 236 232 231 235 236 235 236 238 240 239 234 231 228 225 222 222 225 228 226 225 229 232 234 237 240 243 247 251 253 252 252
321 318 315 311 309 307 304 301 300 300 300 299 298 297 297 297 298 298 297 296 296 298 300 301 302 300 296 291 285 280 275 268 262 260 258 257 258 251 246 249 245 234 233 237 232 225 227 230 230 230 230 232 235 235 233 231 233 237 236 235 237 238 238 238 237 231 225 223 224 226 228 231 229 226 228 230 231 234 240 245 249 251 250 249 252
329 326 323 318 316 313 310 307 305 304 305 304 301 298 297 297 297 297 296 295 293 292 293 297 300 301 298 294 289 286 282 275 272 266 254 248 252 255 255 250 237 229 234 237 231 229 232 233 233 234 233 233 235 234 228 227 233 237 235 232 232 234 237 239 234 225 222 221 223 227 231 233 232 228 227 228 228 231 239 247 252 252 250 251 254
330 327 325 323 322 320 317 315 313 311 312 311 307 305 302 301 300 299 299 298 295 293 293 296 299 300 299 296 292 287 282 277 272 256 237 230 239 257 262 246 227 229 238 237 230 231 235 236 237 238 236 235 235 233 228 227 231 236 237 235 233 232 234 237 231 223 221 223 224 227 231 232 231 229 228 231 234 239 246 251 252 253 253 253 255
327 324 322 321 320 320 319 318 315 314 314 313 311 310 307 307 308 307 305 304 303 302 301 301 305 307 303 296 290 284 279 272 260 248 244 245 253 264 261 238 227 231 234 230 227 229 233 235 237 239 240 239 237 233 231 230 231 234 236 237 237 235 233 233 232 228 225 226 227 227 228 230 233 234 236 241 246 248 251 251 251 253 254 253 256
322 320 319 319 319 319 318 319 319 318 317 314 312 312 313 315 317 316 313 313 314 315 313 312 315 320 319 310 301 296 291 284 277 268 260 256 257 259 250 232 227 229 228 226 227 229 231 231 231 235 241 239 235 233 234 233 233 234 236 237 240 240 235 232 232 231 229 229 231 231 231 234 240 244 247 251 252 251 251 250 249 250 251 253 256
325 326 325 323 323 321 320 321 321 320 321 319 314 314 316 319 322 323 321 318 317 320 322 322 322 326 331 327 319 314 307 291 282 276 264 254 257 255 244 232 229 229 228 228 228 230 232 230 227 231 237 236 234 234 235 236 236 235 236 238 241 241 235 232 233 234 232 231 232 235 238 242 246 249 250 250 250 249 249 249 248 249 251 253 254
335 334 333 331 330 328 327 326 324 322 322 321 318 317 317 318 321 323 324 321 317 314 318 323 323 323 326 328 322 315 312 303 285 265 248 244 255 257 245 237 235 232 231 232 232 233 234 232 230 231 234 239 240 235 232 235 237 236 236 237 238 238 237 238 241 242 242 242 242 242 245 246 246 247 247 247 247 248 248 248 249 250 250 250 248
346 342 341 340 339 337 336 335 332 330 328 327 326 325 324 323 324 324 324 323 321 318 316 318 320 319 317 320 321 312 302 298 290 268 248 238 234 235 235 236 235 232 229 231 233 234 236 236 235 233 234 240 242 235 231 233 235 237 239 240 240 241 243 245 246 246 247 248 247 246 246 247 246 246 245 245 245 246 246 247 248 247 245 242 238
358 355 354 351 349 349 346 343 339 339 340 339 337 337 337 336 334 332 331 328 326 325 323 319 317 317 314 314 319 319 308 296 287 276 262 250 241 239 241 244 242 235 230 230 236 240 242 241 238 234 231 234 238 237 234 234 234 237 240 241 243 246 248 249 249 249 249 250 248 247 247 247 246 245 244 244 244 246 247 246 245 241 236 233 233
9 5 0 357 356 357 357 354 351 347 347 348 347 346 345 344 345 346 345 341 337 334 332 328 320 317 315 311 310 314 316 305 287 274 266 258 252 250 251 253 252 244 237 237 241 244 245 243 240 234 229 232 240 245 244 238 236 236 238 239 242 246 249 251 250 249 249 248 246 245 244 243 244 245 246 248 249 249 246 241 235 229 224 228 239
17 12 8 5 3 2 4 5 2 356 353 353 354 355 353 351 354 356 356 355 353 349 346 342 333 325 321 317 311 309 311 310 298 281 268 259 254 249 247 247 249 246 242 240 237 233 235 240 241 236 234 237 243 245 243 241 241 242 243 244 244 245 247 248 248 247 247 245 242 242 242 243 246 248 249 249 247 242 235 227 218 213 216 231 250
20 17 15 15 12 10 10 10 8 4 1 357 356 358 359 359 1 2 1 0 360 359 357 354 349 342 335 328 323 317 312 310 307 297 283 270 259 251 245 243 241 236 232 227 221 219 226 236 239 238 238 239 238 235 233 234 238 241 241 240 239 239 241 242 244 244 244 243 243 245 247 248 248 246 243 238 231 224 217 209 203 213 237 251 256
25 22 19 16 15 16 15 13 11 11 10 6 2 360 359 360 3 6 7 6 2 360 0 1 359 355 348 341 336 331 326 321 316 308 299 291 278 264 256 251 247 241 233 227 224 226 231 235 235 234 234 234 232 229 228 230 232 234 234 235 237 241 243 245 247 247 246 245 245 244 242 240 235 230 224 217 208 200 193 199 229 247 252 256 258
31 27 21 18 18 19 18 15 13 13 11 10 10 6 360 358 1 4 7 9 8 4 2 1 1 359 355 351 346 341 337 332 326 320 313 307 302 292 279 268 260 254 249 244 242 241 240 238 237 236 235 234 233 234 237 239 242 243 245 248 251 253 253 252 250 249 246 242 238 233 226 219 212 204 194 182 173 178 215 242 251 252 252 255 260
35 30 25 23 23 22 20 17 14 14 14 13 12 11 8 5 6 7 7 7 10 10 8 4 1 360 359 358 353 347 343 338 332 329 325 320 316 312 302 289 276 265 257 252 249 246 244 243 242 242 242 243 244 246 248 251 253 253 253 252 251 249 247 243 240 237 232 227 220 211 199 189 178 169 163 163 185 226 241 245 247 247 250 256 260
37 33 30 30 29 25 22 21 18 17 18 18 16 16 15 15 14 15 13 10 9 11 13 11 6 1 359 360 358 353 349 345 340 334 329 326 324 322 316 306 291 276 261 252 247 244 242 241 239 240 241 243 244 245 246 246 246 245 243 241 237 234 230 225 220 214 206 196 186 174 164 159 157 163 182 205 221 231 235 238 242 246 249 254 257
34 30 27 28 30 28 24 24 24 22 21 20 19 19 19 19 18 17 17 15 12 12 13 15 13 8 2 360 360 358 355 351 347 342 336 331 326 321 318 315 307 294 275 255 242 235 233 231 229 228 229 228 229 230 230 230 230 229 227 224 220 213 207 199 191 182 173 165 158 155 156 162 176 197 215 224 228 232 234 236 242 244 245 248 253
34 28 24 23 25 25 24 24 27 29 29 25 24 25 27 27 24 21 19 17 15 14 13 13 14 13 9 3 359 358 357 355 352 349 344 339 333 327 321 314 308 306 300 280 256 233 220 214 210 207 205 202 202 202 201 200 201 198 196 193 188 182 177 170 164 160 157 155 158 165 176 193 209 220 226 227 229 232 233 235 240 241 241 244 248
37 30 26 24 23 22 22 24 28 32 32 29 29 32 32 30 27 24 22 19 17 16 14 13 11 11 11 9 4 0 358 354 353 352 349 345 341 336 330 323 317 314 316 318 312 279 225 202 193 189 183 179 177 175 173 171 169 166 164 161 158 156 155 153 153 154 158 166 179 192 204 214 220 222 224 225 226 228 230 232 237 240 241 244 246
38 34 27 24 26 27 24 24 27 28 28 27 27 28 27 23 21 20 19 17 16 14 13 12 12 10 9 8 7 5 2 356 352 351 350 348 346 343 339 334 330 326 325 336 349 360 10 13 159 172 172 169 166 164 163 161 158 155 153 151 151 153 155 157 161 168 179 193 202 206 210 214 216 218 221 223 223 226 230 233 238 242 244 247 251
32 32 26 23 25 27 26 25 23 21 21 23 21 18 17 16 15 15 14 12 11 10 8 9 11 10 7 6 5 5 4 1 355 351 350 349 348 347 345 342 339 335 332 330 332 340 351 355 355 360 8 154 165 164 164 162 158 155 153 151 154 161 169 177 183 189 195 201 205 207 210 213 215 217 220 222 223 227 234 238 242 245 247 249 254
24 26 24 26 29 28 24 21 19 16 16 17 14 10 10 11 12 11 9 6 7 7 5 6 10 11 7 4 4 3 3 5 3 358 353 351 351 350 348 345 343 342 339 335 334 335 338 341 342 343 343 341 334 325 309 194 180 174 172 173 177 183 189 196 200 204 207 208 210 214 215 215 217 220 222 225 230 234 239 241 241 243 245 249 253
20 19 18 22 28 27 21 18 17 15 14 14 11 6 6 7 8 7 4 2 3 4 2 3 9 12 9 7 6 5 4 6 7 4 358 353 351 350 349 347 346 345 342 339 339 337 337 339 340 338 335 332 327 320 308 269 238 217 202 199 198 200 203 206 209 212 215 215 216 219 220 220 223 228 231 235 238 238 238 239 240 241 243 246 249
19 19 17 16 19 20 16 15 17 15 12 10 6 4 4 4 3 3 1 359 358 359 359 0 4 8 9 9 9 7 7 7 6 4 2 357 350 348 347 344 343 343 342 340 339 338 336 335 336 334 330 324 314 300 275 248 231 219 212 209 209 210 213 216 215 215 216 216 218 222 227 230 233 235 238 239 238 237 236 236 238 241 243 246 254
19 20 18 15 15 15 14 13 15 15 12 7 3 4 6 4 359 357 357 355 354 355 356 357 359 3 7 9 10 9 9 8 6 4 4 0 352 346 343 340 338 337 337 335 335 333 331 329 326 325 322 316 305 294 276 259 244 231 222 219 219 220 221 221 220 220 220 222 225 230 234 237 238 238 238 237 234 232 232 233 236 243 249 257 268
18 17 16 15 14 13 12 11 10 10 9 6 4 5 4 0 356 353 351 350 352 353 354 355 357 0 3 6 9 10 10 8 7 7 6 3 358 350 342 336 334 331 329 328 327 324 323 321 317 312 308 302 297 291 279 264 249 239 233 230 230 230 229 228 229 232 234 234 236 237 238 239 239 237 235 231 226 222 220 222 233 246 254 261 268
15 13 11 12 11 10 9 8 7 6 6 6 4 3 1 357 354 352 349 349 351 354 353 353 355 357 357 358 1 5 7 6 6 6 4 3 2 358 349 339 333 328 323 322 320 316 313 311 306 300 291 283 281 279 273 263 252 245 242 240 238 237 238 239 242 244 244 243 244 245 244 242 238 233 226 218 210 206 203 204 216 231 243 250 253
9 8 8 7 7 6 6 6 6 5 6 6 3 2 3 359 352 350 350 350 353 355 355 353 351 350 351 351 352 356 0 1 1 1 0 1 3 1 354 344 336 330 324 320 316 311 308 303 298 292 284 276 271 267 263 260 256 252 248 246 246 248 250 251 250 249 248 247 245 243 241 237 231 223 214 204 195 192 190 194 207 220 232 241 245
3 3 3 2 2 2 2 3 5 5 6 6 4 4 6 2 357 354 354 353 353 354 355 352 347 343 343 344 345 348 353 354 355 356 357 358 360 1 357 349 341 335 330 323 316 311 308 302 297 293 287 280 274 266 259 255 255 254 253 253 253 253 253 252 250 247 244 240 235 231 229 227 223 216 208 201 199 201 200 202 212 222 231 239 248
357 358 358 357 358 358 358 359 1 3 3 2 1 4 7 5 3 3 359 353 350 351 351 348 342 337 337 340 341 341 344 347 349 351 354 354 356 359 359 354 347 340 337 333 324 316 311 305 297 291 285 279 273 267 261 257 257 258 259 258 257 255 254 252 249 243 237 231 226 224 222 221 218 215 210 208 210 216 218 219 224 232 238 244 250
352 352 352 351 352 354 355 354 354 358 1 359 357 2 6 5 3 3 359 352 348 348 347 346 342 338 337 340 339 336 337 342 345 346 348 349 350 354 358 358 353 346 342 341 336 325 317 310 300 291 283 275 268 263 260 259 259 260 260 259 257 256 254 249 243 236 230 225 223 221 220 218 216 217 217 219 223 229 231 231 232 237 243 248 251
351 348 346 346 347 349 350 350 349 351 357 356 354 358 3 2 360 360 358 352 346 344 344 345 345 341 338 336 334 333 337 342 344 341 338 339 342 347 353 357 357 353 348 346 344 337 328 318 307 298 291 282 272 265 262 261 261 261 259 257 255 251 246 241 236 231 227 225 224 222 222 222 223 224 226 230 234 236 238 238 239 243 251 255 252
350 345 341 342 343 342 344 347 348 347 349 348 347 352 358 359 356 355 355 351 347 345 346 346 344 342 339 334 331 331 334 338 338 334 329 328 332 339 346 353 357 357 354 350 348 345 339 330 320 310 299 289 280 273 268 264 263 261 258 254 248 242 238 235 232 230 229 229 228 228 228 228 229 230 232 235 238 239 240 243 244 246 253 257 253
Height
3126 3125 3124 3123 3122 3121 3119 3117 3115 3113 3111 3108 3105 3104 3104 3103 3104 3104 3104 3105 3104 3101 3100 3100 3100 3100 3100 3100 3100 3101 3102 3104 3106 3109 3111 3112 3112 3114 3114 3114 3116 3117 3118 3118 3118 3119 3121 3121 3122 3124 3126 3127 3128 3129 3130 3130 3131 3131 3132 3133 3134 3137 3137 3137 3138 3139 3140 3141 3141 3141 3141 3142 3143 3143 3143 3144 3145 3145 3145 3146 3147 3148 3148 3149 3149
3125 3124 3123 3122 3121 3119 3118 3116 3114 3112 3109 3107 3104 3103 3103 3103 3104 3103 3103 3102 3101 3099 3099 3098 3097 3097 3097 3097 3097 3097 3099 3102 3104 3105 3107 3109 3110 3112 3112 3112 3113 3114 3115 3116 3116 3117 3119 3119 3120 3122 3123 3125 3126 3127 3127 3128 3129 3130 3131 3132 3133 3135 3136 3136 3136 3137 3138 3140 3140 3139 3140 3141 3141 3141 3141 3142 3143 3143 3143 3144 3145 3146 3147 3147 3148
3123 3122 3121 3120 3119 3118 3117 3115 3113 3111 3109 3106 3104 3103 3103 3103 3103 3103 3101 3100 3099 3098 3099 3098 3096 3095 3096 3095 3095 3095 3095 3098 3101 3101 3103 3106 3108 3109 3109 3110 3111 3112 3114 3113 3113 3115 3117 3117 3118 3119 3120 3122 3124 3124 3125 3126 3127 3128 3129 3130 3131 3132 3134 3134 3134 3135 3137 3138 3138 3138 3139 3140 3140 3140 3140 3141 3141 3141 3142 3143 3144 3144 3145 3145 3146
3122 3121 3120 3119 3118 3117 3115 3114 3112 3110 3108 3107 3105 3103 3103 3103 3103 3102 3101 3100 3099 3098 3098 3098 3096 3096 3096 3096 3095 3094 3094 3095 3096 3097 3099 3102 3104 3106 3107 3108 3110 3111 3112 3112 3111 3113 3115 3114 3115 3117 3118 3120 3121 3122 3123 3125 3125 3126 3126 3128 3129 3130 3131 3132 3132 3133 3135 3136 3137 3137 3137 3138 3138 3138 3138 3139 3139 3140 3140 3141 3142 3143 3143 3144 3145
3120 3119 3118 3118 3117 3115 3114 3113 3111 3110 3108 3106 3105 3104 3103 3102 3102 3101 3101 3100 3099 3098 3097 3097 3096 3095 3095 3095 3094 3094 3093 3093 3094 3094 3096 3099 3101 3103 3104 3106 3107 3108 3109 3110 3110 3110 3112 3112 3113 3115 3116 3118 3119 3120 3121 3122 3123 3123 3123 3124 3127 3128 3129 3130 3131 3132 3133 3135 3136 3135 3135 3136 3137 3136 3136 3136 3137 3138 3139 3140 3141 3141 3142 3143 3143
3119 3118 3117 3116 3115 3114 3113 3112 3111 3109 3108 3106 3105 3103 3102 3101 3100 3100 3099 3098 3098 3097 3095 3095 3095 3094 3094 3093 3094 3094 3093 3092 3091 3092 3093 3096 3098 3099 3101 3102 3104 3105 3107 3108 3108 3106 3107 3110 3111 3112 3114 3116 3117 3118 3118 3119 3120 3121 3120 3121 3123 3125 3127 3128 3129 3130 3131 3132 3134 3133 3133 3135 3135 3135 3135 3135 3136 3137 3137 3138 3139 3140 3141 3141 3142
3117 3116 3116 3115 3114 3113 3112 3111 3110 3108 3107 3106 3104 3103 3101 3100 3099 3098 3098 3097 3096 3096 3094 3092 3092 3092 3092 3092 3092 3093 3093 3091 3089 3089 3090 3092 3095 3096 3097 3099 3101 3103 3104 3106 3105 3103 3103 3107 3110 3111 3112 3113 3114 3114 3115 3115 3116 3116 3116 3118 3120 3121 3124 3126 3128 3128 3129 3130 3131 3131 3132 3133 3133 3133 3133 3134 3134 3135 3136 3137 3138 3138 3139 3141 3141
3115 3115 3114 3113 3112 3111 3110 3110 3108 3107 3106 3105 3104 3102 3101 3099 3098 3097 3096 3095 3094 3093 3092 3091 3090 3090 3090 3090 3090 3091 3091 3090 3088 3087 3088 3090 3092 3094 3094 3096 3098 3100 3102 3103 3102 3101 3102 3105 3107 3108 3109 3111 3110 3111 3112 3113 3114 3115 3117 3119 3120 3120 3122 3124 3126 3127 3127 3128 3129 3129 3130 3130 3131 3131 3131 3132 3133 3134 3135 3136 3136 3137 3138 3140 3141
3114 3113 3112 3112 3111 3110 3109 3108 3107 3106 3105 3104 3103 3101 3100 3098 3097 3096 3094 3093 3092 3091 3090 3089 3088 3088 3088 3088 3088 3088 3088 3088 3088 3087 3086 3087 3089 3091 3092 3094 3096 3097 3098 3100 3100 3100 3101 3103 3104 3104 3106 3108 3108 3109 3111 3112 3114 3115 3117 3118 3119 3120 3121 3122 3124 3125 3126 3126 3127 3127 3128 3128 3129 3129 3130 3131 3132 3132 3133 3134 3135 3136 3137 3138 3139
3112 3111 3111 3110 3109 3108 3107 3106 3106 3105 3103 3102 3101 3100 3098 3097 3096 3094 3093 3091 3089 3088 3087 3086 3085 3084 3084 3085 3085 3085 3084 3085 3086 3087 3087 3086 3087 3088 3089 3091 3093 3095 3096 3097 3098 3099 3100 3100 3101 3103 3104 3103 3104 3106 3108 3110 3111 3112 3113 3114 3116 3118 3119 3120 3122 3122 3123 3123 3124 3125 3126 3127 3127 3128 3129 3129 3130 3131 3132 3133 3134 3135 3136 3137 3137
3111 3110 3109 3108 3107 3106 3105 3104 3103 3103 3102 3100 3099 3098 3097 3096 3094 3092 3091 3089 3087 3086 3084 3083 3082 3081 3081 3081 3082 3081 3081 3083 3085 3085 3086 3086 3085 3086 3087 3088 3090 3092 3093 3094 3095 3096 3097 3097 3099 3101 3101 3100 3101 3103 3105 3107 3108 3109 3110 3111 3113 3115 3116 3118 3119 3119 3120 3121 3122 3123 3124 3125 3126 3126 3127 3128 3129 3129 3130 3131 3133 3134 3134 3135 3136
3109 3108 3107 3106 3105 3104 3103 3102 3101 3100 3099 3098 3097 3096 3095 3094 3092 3091 3089 3087 3085 3083 3081 3080 3079 3078 3077 3078 3078 3077 3077 3080 3083 3083 3084 3084 3084 3084 3085 3087 3087 3088 3090 3091 3091 3092 3093 3093 3095 3098 3098 3099 3100 3101 3102 3104 3105 3106 3107 3108 3109 3111 3113 3115 3116 3118 3119 3119 3120 3121 3122 3123 3123 3124 3125 3126 3127 3128 3128 3130 3131 3131 3132 3133 3134
3107 3106 3105 3104 3103 3102 3101 3100 3099 3098 3097 3096 3095 3094 3092 3091 3090 3089 3087 3085 3083 3081 3079 3077 3076 3075 3074 3074 3074 3074 3074 3077 3080 3080 3081 3082 3081 3081 3083 3084 3084 3085 3087 3087 3086 3087 3088 3089 3092 3093 3094 3096 3097 3098 3099 3101 3102 3103 3105 3105 3106 3107 3109 3111 3113 3115 3116 3116 3117 3119 3120 3120 3120 3122 3123 3124 3125 3126 3127 3127 3128 3130 3130 3131 3131
3105 3104 3103 3102 3101 3100 3099 3098 3097 3096 3095 3094 3093 3091 3090 3089 3087 3086 3085 3083 3081 3079 3077 3075 3073 3072 3071 3070 3071 3071 3071 3073 3076 3076 3077 3078 3078 3078 3079 3081 3081 3083 3083 3083 3083 3084 3085 3087 3088 3090 3091 3093 3094 3095 3096 3098 3099 3100 3102 3102 3103 3104 3106 3108 3110 3112 3112 3112 3115 3116 3118 3118 3118 3119 3120 3122 3123 3123 3124 3125 3126 3127 3128 3128 3129
3103 3102 3101 3100 3099 3098 3097 3096 3095 3094 3093 3091 3090 3089 3087 3086 3084 3083 3082 3080 3078 3076 3074 3072 3071 3069 3068 3067 3067 3068 3068 3070 3071 3071 3073 3074 3074 3074 3076 3078 3078 3079 3080 3080 3081 3082 3083 3084 3085 3087 3089 3090 3091 3091 3093 3094 3096 3097 3098 3099 3100 3101 3103 3104 3106 3109 3109 3110 3112 3113 3115 3116 3116 3117 3119 3119 3120 3121 3122 3123 3123 3124 3125 3126 3127
3101 3100 3099 3098 3097 3096 3095 3094 3093 3092 3090 3089 3088 3086 3085 3083 3082 3080 3078 3077 3075 3073 3071 3070 3068 3067 3066 3065 3064 3065 3065 3066 3067 3067 3068 3070 3070 3071 3073 3074 3075 3076 3077 3078 3078 3079 3079 3081 3083 3084 3085 3086 3087 3089 3090 3091 3092 3093 3094 3096 3097 3098 3099 3100 3103 3105 3106 3107 3109 3111 3111 3112 3114 3116 3116 3117 3118 3119 3120 3120 3121 3122 3123 3124 3124
3099 3098 3097 3096 3095 3094 3093 3092 3091 3090 3088 3087 3085 3084 3082 3081 3079 3078 3076 3074 3072 3071 3069 3067 3066 3064 3063 3063 3062 3062 3062 3062 3063 3064 3065 3066 3067 3068 3069 3070 3071 3073 3075 3075 3074 3075 3077 3079 3080 3080 3081 3082 3084 3085 3087 3088 3089 3090 3091 3093 3094 3095 3096 3098 3100 3102 3103 3104 3105 3106 3107 3109 3110 3112 3113 3114 3115 3116 3117 3118 3118 3119 3120 3121 3121
3097 3096 3095 3094 3093 3092 3091 3090 3089 3088 3086 3085 3083 3081 3080 3078 3077 3076 3074 3072 3070 3069 3067 3065 3063 3062 3061 3061 3060 3060 3059 3059 3060 3061 3062 3063 3064 3065 3066 3066 3067 3069 3071 3070 3069 3071 3073 3075 3077 3078 3078 3079 3081 3082 3084 3085 3086 3086 3088 3090 3091 3092 3094 3096 3097 3098 3099 3100 3100 3101 3103 3104 3106 3108 3110 3111 3112 3113 3114 3115 3115 3116 3117 3118 3117
3095 3094 3093 3092 3091 3090 3089 3088 3087 3086 3084 3083 3081 3079 3078 3077 3075 3073 3072 3070 3069 3067 3066 3064 3062 3060 3059 3059 3058 3057 3057 3057 3058 3059 3059 3060 3061 3062 3063 3063 3063 3064 3066 3065 3065 3068 3070 3072 3074 3075 3076 3077 3078 3079 3081 3083 3083 3084 3085 3087 3088 3090 3091 3092 3093 3094 3096 3097 3098 3099 3100 3101 3102 3104 3105 3106 3108 3109 3110 3111 3112 3113 3113 3113 3113
3094 3093 3091 3090 3089 3088 3088 3087 3085 3084 3082 3081 3079 3078 3076 3075 3073 3072 3070 3069 3067 3066 3064 3062 3061 3059 3058 3057 3056 3055 3055 3055 3055 3056 3056 3057 3058 3058 3059 3059 3060 3062 3062 3062 3064 3066 3068 3069 3071 3072 3073 3075 3076 3077 3079 3080 3081 3081 3082 3084 3085 3087 3087 3088 3089 3090 3092 3094 3095 3096 3097 3098 3100 3101 3102 3102 3103 3105 3106 3107 3108 3109 3109 3109 3110
3093 3091 3090 3089 3088 3087 3086 3085 3083 3082 3080 3079 3077 3076 3074 3073 3071 3070 3069 3067 3065 3064 3063 3061 3059 3058 3057 3055 3054 3053 3053 3053 3054 3054 3054 3055 3055 3055 3055 3056 3058 3059 3059 3060 3063 3064 3065 3066 3068 3070 3071 3073 3074 3075 3076 3078 3079 3079 3080 3081 3083 3083 3084 3085 3087 3088 3090 3091 3092 3093 3093 3095 3096 3098 3099 3099 3100 3101 3102 3103 3104 3105 3105 3106 3106
3091 3090 3089 3087 3086 3085 3084 3083 3081 3080 3078 3077 3075 3074 3072 3071 3069 3068 3067 3065 3064 3062 3061 3060 3058 3057 3055 3054 3053 3052 3052 3052 3052 3052 3053 3053 3053 3053 3053 3054 3055 3055 3056 3058 3060 3061 3062 3064 3066 3068 3070 3071 3072 3073 3074 3076 3077 3078 3078 3079 3080 3081 3081 3083 3084 3085 3087 3088 3088 3089 3090 3091 3093 3094 3095 3095 3096 3098 3099 3099 3100 3101 3101 3101 3101
3090 3089 3088 3086 3085 3084 3082 3081 3080 3078 3077 3075 3073 3072 3070 3069 3068 3066 3065 3063 3062 3061 3060 3058 3057 3056 3054 3053 3052 3051 3050 3050 3050 3050 3050 3050 3050 3050 3051 3052 3053 3053 3054 3055 3057 3058 3060 3062 3065 3066 3068 3069 3070 3071 3072 3074 3075 3076 3076 3077 3077 3078 3078 3080 3080 3081 3083 3083 3084 3085 3086 3088 3090 3091 3091 3092 3093 3094 3095 3095 3096 3096 3096 3096 3096
3089 3088 3087 3085 3084 3082 3081 3079 3078 3076 3075 3074 3072 3070 3069 3067 3066 3065 3063 3062 3061 3059 3058 3057 3056 3055 3054 3052 3051 3050 3050 3049 3049 3049 3048 3048 3048 3049 3049 3050 3051 3052 3052 3053 3055 3057 3058 3060 3062 3064 3065 3066 3067 3069 3070 3072 3073 3074 3074 3074 3075 3075 3076 3077 3078 3079 3080 3081 3082 3083 3084 3086 3087 3087 3088 3088 3089 3090 3090 3091 3091 3091 3091 3091 3092
3089 3087 3086 3085 3083 3081 3080 3078 3077 3075 3074 3072 3071 3069 3067 3066 3065 3063 3062 3061 3060 3058 3057 3056 3055 3054 3053 3052 3051 3050 3049 3048 3048 3048 3048 3048 3048 3048 3048 3049 3050 3051 3051 3052 3053 3055 3057 3058 3060 3061 3062 3063 3064 3066 3068 3069 3070 3071 3071 3072 3072 3073 3073 3074 3075 3076 3077 3078 3079 3081 3081 3082 3083 3083 3083 3084 3085 3085 3086 3086 3086 3087 3087 3087 3087
3088 3087 3085 3084 3083 3081 3079 3078 3076 3075 3073 3071 3070 3068 3066 3065 3063 3062 3061 3059 3058 3057 3056 3055 3054 3053 3052 3051 3051 3049 3049 3048 3047 3047 3047 3047 3047 3047 3047 3048 3049 3050 3050 3051 3052 3053 3054 3056 3057 3059 3060 3061 3062 3063 3064 3065 3066 3067 3068 3068 3069 3070 3070 3071 3072 3073 3074 3075 3076 3077 3077 3078 3078 3079 3079 3080 3080 3080 3081 3081 3081 3081 3082 3082 3083
3088 3086 3085 3084 3082 3081 3079 3078 3076 3075 3073 3071 3069 3068 3066 3064 3063 3061 3060 3058 3057 3056 3055 3054 3053 3052 3051 3050 3049 3049 3048 3047 3047 3046 3046 3046 3046 3046 3046 3047 3047 3048 3049 3049 3050 3051 3052 3053 3054 3057 3059 3059 3059 3060 3061 3061 3062 3063 3064 3064 3065 3066 3067 3068 3069 3070 3070 3071 3071 3072 3072 3073 3073 3074 3074 3075 3075 3075 3076 3076 3077 3077 3078 3079 3080
3088 3086 3085 3084 3082 3081 3079 3078 3076 3074 3073 3072 3070 3068 3066 3064 3063 3061 3059 3058 3056 3055 3054 3053 3052 3051 3049 3049 3048 3047 3047 3046 3046 3045 3045 3045 3045 3045 3045 3045 3046 3046 3047 3047 3048 3049 3049 3050 3051 3054 3056 3056 3056 3057 3058 3058 3059 3060 3061 3061 3062 3063 3063 3064 3065 3066 3066 3066 3067 3067 3067 3068 3068 3069 3069 3070 3071 3071 3072 3073 3074 3075 3076 3077 3078
3088 3086 3085 3084 3082 3081 3079 3078 3076 3074 3073 3071 3070 3068 3067 3065 3063 3061 3059 3058 3056 3055 3053 3052 3051 3050 3049 3048 3047 3046 3045 3045 3045 3044 3044 3044 3044 3044 3044 3044 3044 3044 3044 3045 3045 3046 3047 3047 3048 3050 3052 3053 3053 3053 3054 3054 3055 3056 3057 3058 3058 3059 3059 3060 3061 3061 3062 3062 3062 3063 3063 3063 3064 3065 3065 3066 3067 3068 3069 3070 3071 3072 3074 3075 3077
3088 3087 3085 3084 3083 3081 3080 3078 3077 3075 3073 3071 3070 3068 3067 3065 3063 3062 3060 3058 3056 3055 3053 3052 3050 3049 3048 3047 3046 3045 3044 3043 3043 3043 3043 3042 3042 3042 3042 3042 3042 3042 3042 3042 3043 3043 3044 3045 3046 3047 3048 3049 3050 3050 3050 3050 3051 3052 3052 3053 3054 3054 3055 3056 3056 3057 3057 3058 3058 3059 3059 3060 3060 3061 3062 3063 3064 3065 3066 3068 3069 3071 3072 3074 3075
3089 3088 3086 3085 3083 3082 3080 3079 3077 3076 3074 3072 3070 3068 3066 3065 3064 3062 3061 3059 3057 3055 3054 3052 3051 3049 3048 3046 3045 3044 3043 3043 3042 3041 3041 3041 3040 3040 3040 3040 3041 3041 3041 3041 3041 3041 3042 3042 3043 3043 3044 3045 3046 3046 3046 3047 3048 3048 3049 3050 3050 3051 3051 3052 3053 3053 3054 3055 3055 3055 3056 3057 3057 3058 3060 3061 3062 3063 3065 3066 3068 3069 3071 3072 3072
3090 3089 3087 3086 3084 3083 3081 3080 3078 3076 3075 3073 3072 3070 3068 3066 3064 3062 3061 3059 3058 3056 3055 3053 3051 3050 3048 3047 3045 3044 3043 3042 3042 3041 3040 3040 3039 3039 3038 3038 3038 3038 3038 3039 3039 3039 3039 3040 3040 3041 3041 3041 3042 3043 3043 3044 3045 3045 3046 3047 3047 3048 3048 3049 3049 3050 3051 3051 3052 3052 3053 3054 3055 3056 3058 3059 3060 3062 3063 3065 3067 3068 3069 3070 3070
3091 3089 3088 3087 3086 3084 3083 3081 3079 3077 3076 3074 3072 3071 3070 3068 3065 3063 3061 3060 3058 3057 3056 3054 3052 3051 3049 3048 3046 3045 3044 3043 3042 3041 3040 3039 3038 3038 3037 3037 3036 3036 3036 3036 3036 3036 3037 3037 3037 3038 3038 3038 3039 3039 3040 3041 3041 3042 3042 3043 3043 3044 3044 3045 3046 3046 3047 3048 3049 3050 3051 3052 3053 3055 3056 3058 3059 3061 3062 3064 3066 3067 3068 3068 3069
3091 3090 3089 3088 3086 3085 3084 3082 3080 3078 3077 3075 3073 3072 3070 3069 3067 3065 3063 3061 3059 3058 3056 3055 3053 3052 3050 3049 3047 3046 3045 3043 3042 3041 3041 3040 3039 3038 3037 3037 3036 3035 3035 3034 3034 3034 3034 3034 3034 3035 3035 3035 3036 3036 3037 3037 3037 3038 3038 3039 3039 3040 3041 3041 3043 3044 3045 3046 3047 3049 3050 3051 3053 3054 3056 3057 3059 3060 3062 3063 3064 3065 3066 3067 3067
3092 3091 3090 3088 3087 3086 3085 3083 3081 3079 3078 3076 3075 3073 3071 3070 3068 3066 3065 3063 3061 3059 3057 3056 3055 3053 3051 3050 3049 3047 3046 3044 3043 3042 3041 3040 3039 3038 3038 3037 3036 3035 3035 3034 3033 3033 3033 3033 3033 3033 3033 3033 3034 3034 3034 3035 3036 3036 3037 3037 3038 3039 3039 3040 3041 3043 3044 3045 3047 3048 3050 3051 3052 3054 3055 3056 3058 3059 3060 3062 3063 3064 3065 3065 3065
3094 3092 3091 3089 3088 3087 3086 3084 3082 3080 3079 3078 3076 3074 3073 3071 3069 3068 3066 3065 3063 3061 3059 3057 3056 3054 3052 3051 3050 3048 3047 3045 3044 3043 3042 3041 3040 3039 3038 3038 3037 3036 3035 3035 3034 3034 3033 3033 3033 3033 3033 3033 3033 3033 3034 3034 3035 3036 3036 3037 3038 3039 3040 3041 3042 3043 3044 3045 3047 3048 3049 3051 3052 3053 3055 3056 3057 3058 3059 3060 3061 3062 3063 3063 3063
3094 3093 3092 3090 3089 3088 3087 3085 3083 3081 3080 3079 3078 3076 3074 3073 3071 3069 3067 3066 3064 3062 3060 3058 3057 3055 3053 3052 3050 3049 3048 3046 3045 3044 3043 3042 3041 3040 3039 3038 3038 3037 3036 3036 3035 3035 3034 3034 3034 3034 3033 3033 3034 3034 3034 3035 3035 3036 3037 3037 3038 3039 3040 3041 3042 3043 3044 3046 3047 3048 3049 3051 3052 3053 3054 3055 3056 3057 3058 3059 3059 3060 3061 3061 3062
3094 3093 3092 3091 3090 3089 3088 3086 3085 3083 3082 3080 3079 3077 3075 3074 3072 3070 3069 3067 3065 3063 3061 3059 3058 3056 3054 3052 3051 3049 3048 3047 3046 3045 3044 3043 3042 3041 3040 3039 3039 3038 3037 3037 3037 3036 3036 3036 3035 3035 3035 3035 3035 3035 3035 3036 3036 3036 3037 3038 3038 3039 3040 3041 3042 3043 3045 3046 3047 3048 3049 3050 3051 3052 3053 3054 3055 3056 3056 3057 3058 3058 3059 3060 3060
3095 3093 3093 3091 3090 3089 3088 3087 3085 3084 3083 3081 3080 3078 3076 3075 3073 3071 3070 3068 3066 3064 3062 3060 3058 3056 3055 3053 3052 3050 3049 3047 3046 3045 3044 3043 3042 3041 3041 3040 3040 3039 3039 3038 3038 3037 3037 3037 3036 3036 3036 3036 3036 3036 3036 3036 3037 3037 3037 3038 3039 3040 3041 3042 3043 3044 3045 3046 3047 3048 3049 3050 3051 3052 3053 3053 3054 3055 3055 3056 3056 3057 3058 3058 3058
3095 3094 3093 3091 3090 3089 3088 3087 3086 3084 3083 3082 3080 3079 3077 3076 3074 3072 3071 3069 3067 3065 3063 3061 3059 3058 3056 3054 3052 3051 3049 3048 3047 3045 3044 3043 3043 3042 3041 3040 3040 3040 3039 3039 3038 3038 3037 3037 3037 3037 3037 3037 3037 3037 3037 3037 3037 3037 3038 3038 3039 3040 3041 3042 3043 3044 3045 3046 3047 3048 3049 3049 3050 3051 3052 3052 3053 3053 3054 3055 3055 3056 3056 3056 3056
3096 3095 3093 3092 3091 3090 3088 3087 3086 3085 3083 3082 3081 3079 3078 3076 3075 3073 3071 3070 3068 3067 3065 3063 3061 3059 3057 3055 3053 3051 3050 3048 3047 3046 3045 3044 3043 3042 3041 3041 3040 3040 3039 3039 3039 3038 3038 3038 3037 3037 3037 3037 3037 3037 3037 3038 3038 3038 3039 3039 3040 3041 3042 3043 3044 3044 3045 3046 3047 3048 3048 3049 3050 3050 3051 3051 3052 3052 3053 3053 3054 3054 3054 3054 3054
3096 3095 3094 3092 3092 3091 3089 3088 3087 3086 3084 3083 3082 3080 3078 3076 3075 3073 3072 3071 3069 3067 3066 3064 3062 3060 3058 3056 3054 3052 3050 3049 3047 3046 3045 3044 3043 3042 3042 3041 3041 3040 3040 3039 3039 3038 3038 3038 3038 3038 3038 3038 3038 3038 3038 3038 3039 3039 3039 3040 3041 3041 3042 3043 3044 3045 3045 3046 3047 3047 3048 3048 3049 3049 3050 3050 3051 3052 3052 3052 3052 3052 3052 3052 3051
3096 3095 3094 3093 3092 3091 3090 3088 3087 3086 3085 3084 3082 3080 3079 3077 3075 3074 3072 3071 3070 3068 3066 3065 3063 3061 3059 3057 3055 3053 3051 3050 3048 3047 3046 3045 3044 3043 3042 3041 3041 3040 3040 3039 3039 3038 3038 3038 3038 3038 3038 3038 3038 3038 3039 3039 3039 3040 3040 3041 3041 3042 3042 3043 3044 3044 3045 3046 3046 3047 3047 3047 3048 3049 3049 3050 3050 3050 3050 3050 3050 3050 3049 3049 3049
3096 3095 3094 3093 3092 3091 3090 3089 3087 3086 3085 3083 3082 3080 3079 3077 3076 3075 3073 3072 3070 3069 3067 3065 3064 3062 3060 3058 3056 3055 3053 3051 3050 3048 3046 3045 3044 3043 3042 3041 3041 3040 3040 3039 3039 3038 3038 3038 3038 3038 3038 3038 3038 3039 3039 3039 3040 3040 3040 3041 3041 3042 3042 3043 3043 3044 3045 3045 3045 3046 3046 3047 3047 3048 3048 3049 3049 3048 3048 3048 3048 3048 3048 3048 3048
3096 3095 3094 3093 3092 3091 3090 3089 3087 3086 3085 3083 3082 3080 3079 3078 3076 3075 3074 3072 3071 3069 3068 3066 3065 3063 3061 3059 3058 3056 3054 3053 3051 3049 3048 3046 3045 3044 3043 3042 3041 3040 3040 3039 3039 3038 3038 3038 3038 3038 3038 3039 3039 3039 3039 3039 3040 3040 3040 3041 3041 3042 3042 3043 3043 3044 3044 3044 3044 3045 3045 3046 3046 3047 3047 3047 3047 3046 3046 3047 3047 3047 3048 3048 3048
3096 3095 3094 3093 3092 3091 3090 3088 3087 3086 3085 3084 3082 3081 3080 3078 3076 3075 3074 3073 3071 3070 3069 3067 3066 3064 3062 3061 3059 3057 3056 3054 3052 3051 3049 3047 3046 3044 3043 3042 3041 3040 3040 3039 3039 3038 3038 3038 3038 3038 3038 3038 3039 3039 3039 3039 3040 3040 3040 3041 3041 3041 3042 3042 3043 3043 3043 3043 3044 3044 3045 3046 3046 3046 3046 3046 3045 3046 3046 3046 3047 3047 3048 3048 3048
3095 3094 3093 3092 3091 3090 3089 3088 3087 3086 3085 3083 3082 3081 3080 3078 3077 3075 3074 3072 3071 3070 3069 3068 3067 3065 3064 3062 3060 3059 3057 3055 3054 3052 3050 3048 3047 3046 3044 3043 3041 3041 3040 3039 3039 3038 3038 3038 3038 3038 3038 3038 3039 3039 3039 3039 3040 3040 3040 3041 3041 3041 3041 3042 3042 3042 3043 3043 3043 3044 3045 3045 3045 3045 3045 3045 3045 3045 3046 3046 3047 3047 3048 3048 3048
3095 3094 3093 3092 3091 3090 3089 3087 3086 3085 3084 3083 3082 3080 3079 3078 3077 3075 3074 3072 3071 3070 3069 3068 3067 3066 3064 3063 3061 3060 3058 3056 3055 3053 3051 3050 3048 3047 3045 3043 3042 3041 3040 3039 3039 3038 3038 3037 3037 3037 3038 3038 3038 3039 3039 3039 3039 3040 3040 3040 3040 3041 3041 3041 3041 3042 3042 3043 3043 3044 3044 3044 3044 3044 3044 3044 3045 3045 3046 3046 3046 3047 3047 3047 3047
3094 3093 3092 3091 3090 3089 3088 3087 3085 3084 3083 3082 3081 3080 3079 3078 3076 3075 3074 3072 3071 3069 3068 3067 3066 3065 3064 3063 3061 3060 3058 3057 3056 3054 3052 3051 3049 3048 3046 3045 3043 3041 3040 3039 3039 3038 3038 3037 3037 3037 3037 3037 3038 3038 3038 3039 3039 3039 3039 3039 3040 3040 3040 3040 3041 3041 3042 3042 3043 3043 3043 3043 3043 3043 3044 3044 3045 3045 3045 3045 3046 3046 3046 3046 3046
3093 3092 3092 3090 3090 3089 3088 3086 3085 3084 3083 3081 3080 3079 3078 3077 3076 3074 3073 3072 3071 3069 3068 3066 3065 3064 3063 3062 3061 3059 3058 3057 3056 3055 3053 3052 3050 3049 3047 3046 3044 3042 3041 3040 3039 3038 3038 3038 3037 3037 3037 3037 3037 3037 3038 3038 3038 3038 3039 3039 3039 3039 3040 3040 3040 3041 3041 3042 3042 3042 3042 3043 3043 3043 3043 3043 3044 3044 3044 3045 3045 3045 3045 3045 3045
3092 3092 3091 3090 3089 3088 3087 3086 3085 3084 3082 3081 3080 3079 3077 3076 3075 3074 3072 3071 3070 3068 3067 3066 3065 3064 3063 3062 3061 3059 3058 3057 3056 3054 3053 3052 3050 3049 3048 3046 3045 3043 3042 3041 3040 3039 3038 3038 3037 3037 3037 3037 3037 3037 3037 3037 3038 3038 3038 3038 3039 3039 3039 3040 3040 3040 3041 3041 3041 3041 3041 3042 3042 3042 3042 3043 3043 3043 3044 3044 3044 3044 3044 3044 3044